FENGYUN 1C DEB, 31558

Orbit data source: Space-Track

FENGYUN 1C DEB, 31558 is space debris in SSO originally from a launch on Mon, 10 May 1999 UTC launched from the Taiyaun Space Center, China (TSC). Fengyun 1C debris stems from the Chinese weather satellite Fengyun-1C, which was intentionally destroyed by a Chinese anti-satellite missile in 2007. This event dramatically increased the amount of space debris, with thousands of trackable fragments posing hazards to satellites and human spaceflight. The Fengyun 1C debris cloud has become a focal point in discussions about space sustainability and the need for international regulations to prevent the creation of new debris.

Loading next visibility...
Identifier
31558, 1999-025BYZ
Orbit
SSO
Country
Flag of CNCN / PRC
Related business
Manufacturer
Unknown
Mission
Spacecraft
Bus & Motor
Unknown
Mass
Unknown
Launch date (UTC)
1999-05-10 (27 years ago)
Launch vehicle
Unknown
Launch site
Taiyaun Space Center, China (TSC)
Object type
Payload
Rocket body
Debris
Shape & HBR
Unknown shape, 0.1 m
Radar Cross Section
Small (<0.1 m²)

Expand to show TLE details & history
Last TLE update: 2 days ago

TLE from 2 days ago
0 FENGYUN 1C DEB
1 31558U 99025BYZ 26120.49888172  .00000481  00000-0  13452-3 0  9996
2 31558  98.7810  24.3216 0210363 210.3565 330.1095 14.38983287994301
Epoch: 2026-04-30T11:58Z
TLE epoch observation values (Epoch: 2026-04-30T11:58:23.380Z)
Latitude
0.63973°
Longitude
166.37785°
Altitude
635.28 km
Speed
7.609 km/s
True Right ascension
13h 37m 40s
True Declination
0° 38' 09"
Sunlit
Object was in full shadow at epoch
Visualization orbit readout
Latitude
Unknown
Longitude
Unknown
Altitude
Unknown
Speed
Unknown
Apparent Right ascension
Unknown
Apparent Declination
Unknown
Sunlit
N/A
Visualization observer readout
Local Sidereal Time
03:44:21
Azimuth
Unknown
Elevation
Unknown
Doppler factor
Unknown
Orbital elements
Apogee altitude
909.133 km
Perigee altitude
608.856 km
Semi-major axis
7,137.131 km
Eccentricity
0.02104
Inclination
98.781°
RAAN
24.3216°
Arg. of periapsis
210.3565°
True anomaly
328.8803°
Mean anomaly
330.1095°
Eccentric anomaly
329.49773°
Mean motion
3.59963 °/min
Orbital period
100.01 mins
BSTAR
0.00013452
Loading maneuver chart data...
Computing Atmospheric mass density...

Documentation

Showing up to 5 results
|